Date String (YYYY-MM-DD hh:mm:ss) UTC,Instrument flags,Ambient pressure (hPa),Sample flow (lpm),Bypass flow (lpm),Sample temperature (°C),Ambient temperature (°C),ASC tube jacket temperature (°C),LED temperature (°C),Box temperature (°C),Sample RH (%),Span deviation,Mass concentration (μg/m³),Mass concentration (μg/m³),Mass concentration (μg/m³)
DateTimeUTC,F1_M11,P_M11,Q1_M11,Q2_M11,T1_M11,T2_M11,T3_M11,T4_M11,T5_M11,U1_M11,ZSPAN_M11,X0_M11,X2_M11,X1_M11
2023-04-26 11:00:00,,0831.6,5.00,0.00,22.8,21.3,00.0,31.1,24.4,26.9,0000.0,0000.99,0000.43,0000.27
2023-04-26 11:01:00,,0831.5,5.01,0.00,22.8,21.3,00.0,31.1,24.4,26.9,0000.0,0000.93,0000.38,0000.24
2023-04-26 11:02:00,,0831.6,4.99,0.00,22.8,21.3,00.0,31.1,24.4,26.9,0000.0,0000.87,0000.34,0000.21
2023-04-26 11:03:00,,0831.6,5.01,0.00,22.8,21.3,00.0,31.1,24.4,26.9,0000.0,0000.97,0000.35,0000.21
2023-04-26 11:04:00,,0831.6,5.00,0.00,22.8,21.3,00.0,31.1,24.4,27.0,0000.0,0001.28,0000.40,0000.23
2023-04-26 11:05:00,,0831.6,5.00,0.00,22.8,21.3,00.0,31.1,24.4,26.9,0000.0,0001.37,0000.44,0000.25
2023-04-26 11:06:00,,0831.6,5.00,0.00,22.8,21.3,00.0,31.1,24.4,26.9,0000.0,0001.37,0000.45,0000.27
2023-04-26 11:07:00,,0831.6,5.00,0.00,22.8,21.3,00.0,31.1,24.4,26.9,0000.0,0001.25,0000.43,0000.26
2023-04-26 11:08:00,,0831.6,5.00,0.00,22.8,21.3,00.0,31.1,24.4,26.9,0000.0,0001.20,0000.41,0000.25
2023-04-26 11:09:00,,0831.6,4.99,0.00,22.8,21.3,00.0,31.1,24.4,26.9,0000.0,0001.16,0000.39,0000.23
2023-04-26 11:10:00,,0831.6,4.99,0.00,22.8,21.3,00.0,31.1,24.4,26.9,0000.0,0001.14,0000.37,0000.21
2023-04-26 11:11:00,,0831.6,4.99,0.00,22.8,21.3,00.0,31.1,24.4,26.9,0000.0,0001.12,0000.38,0000.21
2023-04-26 11:12:00,,0831.6,4.99,0.00,22.8,21.3,00.0,31.1,24.4,26.9,0000.0,0001.09,0000.39,0000.21
2023-04-26 11:13:00,,0831.6,5.00,0.00,22.8,21.3,00.0,31.1,24.4,27.0,0000.0,0001.14,0000.41,0000.21
2023-04-26 11:14:00,,0831.6,5.00,0.00,22.8,21.3,00.0,31.1,24.4,27.0,0000.0,0001.13,0000.44,0000.23
2023-04-26 11:15:00,,0831.6,5.01,0.00,22.8,21.3,00.0,31.1,24.4,26.9,0000.0,0001.02,0000.48,0000.25
2023-04-26 11:16:00,,0831.6,4.99,0.00,22.7,21.3,00.0,31.1,24.3,27.0,0000.0,0001.14,0000.47,0000.25
2023-04-26 11:17:00,,0831.6,5.00,0.00,22.7,21.2,00.0,31.1,24.3,27.0,0000.0,0001.38,0000.50,0000.26
2023-04-26 11:18:00,,0831.6,5.01,0.00,22.7,21.2,00.0,31.1,24.3,27.0,0000.0,0001.37,0000.52,0000.28
2023-04-26 11:19:00,,0831.5,5.01,0.00,22.7,21.2,00.0,31.1,24.3,27.1,0000.0,0001.39,0000.54,0000.30
2023-04-26 11:20:00,,0831.5,5.00,0.00,22.7,21.2,00.0,31.1,24.3,27.1,0000.0,0001.40,0000.55,0000.30
2023-04-26 11:21:00,,0831.5,4.99,0.00,22.7,21.2,00.0,31.1,24.3,27.1,0000.0,0001.50,0000.60,0000.33
2023-04-26 11:22:00,,0831.5,5.00,0.00,22.7,21.2,00.0,31.1,24.3,27.1,0000.0,0001.63,0000.65,0000.35
2023-04-26 11:23:00,,0831.5,4.99,0.00,22.7,21.2,00.0,31.1,24.3,27.0,0000.0,0001.73,0000.69,0000.36
2023-04-26 11:24:00,,0831.5,5.00,0.00,22.7,21.2,00.0,31.1,24.3,27.1,0000.0,0001.81,0000.72,0000.38
2023-04-26 11:25:00,,0831.5,5.01,0.00,22.7,21.2,00.0,31.1,24.3,27.1,0000.0,0001.80,0000.71,0000.38
2023-04-26 11:26:00,,0831.5,5.00,0.00,22.7,21.2,00.0,31.1,24.3,27.1,0000.0,0001.70,0000.67,0000.36
2023-04-26 11:27:00,,0831.6,5.01,0.00,22.7,21.2,00.0,31.1,24.3,27.0,0000.0,0001.58,0000.70,0000.39
2023-04-26 11:28:00,,0831.6,5.01,0.00,22.7,21.1,00.0,31.1,24.3,27.0,0000.0,0001.83,0000.77,0000.42
2023-04-26 11:29:00,,0831.6,5.00,0.00,22.7,21.1,00.0,31.1,24.3,27.0,0000.0,0001.84,0000.74,0000.41
2023-04-26 11:30:00,,0831.6,5.00,0.00,22.7,21.1,00.0,31.1,24.3,27.0,0000.0,0001.86,0000.75,0000.42
2023-04-26 11:31:00,,0831.6,4.99,0.00,22.7,21.1,00.0,31.1,24.2,27.0,0000.0,0001.86,0000.74,0000.43
2023-04-26 11:32:00,,0831.6,5.00,0.00,22.7,21.1,00.0,31.1,24.3,27.1,0000.0,0001.78,0000.72,0000.42
2023-04-26 11:33:00,,0831.6,5.00,0.00,22.7,21.1,00.0,31.1,24.3,27.1,0000.0,0001.61,0000.66,0000.41
2023-04-26 11:34:00,,0831.6,5.00,0.00,22.7,21.1,00.0,31.1,24.3,27.1,0000.0,0001.54,0000.63,0000.39
2023-04-26 11:35:00,,0831.6,5.00,0.00,22.7,21.1,00.0,31.0,24.3,27.1,0000.0,0001.49,0000.61,0000.39
2023-04-26 11:36:00,,0831.6,5.01,0.00,22.7,21.2,00.0,31.0,24.3,27.1,0000.0,0001.44,0000.59,0000.38
2023-04-26 11:37:00,,0831.6,5.00,0.00,22.7,21.2,00.0,31.0,24.3,27.1,0000.0,0001.38,0000.56,0000.37
2023-04-26 11:38:00,,0831.6,5.00,0.00,22.7,21.2,00.0,31.0,24.3,27.2,0000.0,0001.31,0000.51,0000.32
2023-04-26 11:39:00,,0831.6,5.00,0.00,22.7,21.2,00.0,31.0,24.3,27.1,0000.0,0000.77,0000.40,0000.28
2023-04-26 11:40:00,,0831.6,5.00,0.00,22.7,21.2,00.0,31.0,24.3,27.1,0000.0,0000.68,0000.38,0000.26
2023-04-26 11:41:00,,0831.7,5.00,0.00,22.7,21.2,00.0,31.0,24.3,27.2,0000.0,0000.61,0000.36,0000.25
2023-04-26 11:42:00,,0831.7,5.01,0.00,22.7,21.2,00.0,31.0,24.3,27.2,0000.0,0000.58,0000.34,0000.25
2023-04-26 11:43:00,,0831.7,4.99,0.00,22.7,21.2,00.0,31.0,24.3,27.2,0000.0,0000.59,0000.35,0000.25
2023-04-26 11:44:00,,0831.7,5.00,0.00,22.7,21.2,00.0,31.0,24.3,27.2,0000.0,0000.58,0000.35,0000.25
2023-04-26 11:45:00,,0831.7,5.00,0.00,22.7,21.2,00.0,31.0,24.3,27.2,0000.0,0000.55,0000.34,0000.26
2023-04-26 11:46:00,,0831.7,5.01,0.00,22.7,21.2,00.0,31.0,24.3,27.2,0000.0,0000.48,0000.33,0000.27
2023-04-26 11:47:00,,0831.7,5.00,0.00,22.7,21.2,00.0,31.0,24.3,27.2,0000.0,0000.47,0000.33,0000.27
2023-04-26 11:48:00,,0831.7,5.01,0.00,22.7,21.2,00.0,31.0,24.3,27.2,0000.0,0000.58,0000.38,0000.28
2023-04-26 11:49:00,,0832.1,5.00,0.00,22.7,21.2,00.0,31.0,24.3,27.2,0000.0,0000.56,0000.38,0000.29
2023-04-26 11:50:00,,0832.0,5.00,0.00,22.7,21.2,00.0,31.0,24.3,27.2,0000.0,0000.50,0000.36,0000.29
2023-04-26 11:51:00,,0832.2,5.01,0.00,22.7,21.2,00.0,31.0,24.3,27.2,0000.0,0000.49,0000.36,0000.29
2023-04-26 11:52:00,,0832.2,5.00,0.00,22.7,21.2,00.0,31.0,24.3,27.3,0000.0,0000.51,0000.37,0000.29
2023-04-26 11:53:00,,0832.1,5.00,0.00,22.7,21.2,00.0,31.0,24.3,27.2,0000.0,0000.53,0000.38,0000.29
2023-04-26 11:54:00,,0832.3,4.99,0.00,22.7,21.2,00.0,31.0,24.3,27.1,0000.0,0000.55,0000.38,0000.30
2023-04-26 11:55:00,,0832.2,5.00,0.00,22.7,21.2,00.0,31.0,24.3,27.1,0000.0,0000.56,0000.39,0000.30
2023-04-26 11:56:00,,0832.2,4.99,0.00,22.7,21.2,00.0,31.0,24.3,27.1,0000.0,0000.61,0000.40,0000.30
2023-04-26 11:57:00,,0832.1,4.99,0.00,22.7,21.3,00.0,31.0,24.3,27.1,0000.0,0000.64,0000.41,0000.30
2023-04-26 11:58:00,,0831.8,5.00,0.00,22.7,21.3,00.0,31.0,24.3,27.1,0000.0,0000.65,0000.42,0000.30
2023-04-26 11:59:00,,0831.8,5.01,0.00,22.7,21.3,00.0,31.0,24.3,27.1,0000.0,0000.59,0000.39,0000.31
